Location: Pren-gwyn
(52.0667°N, 4.3000°W)
Time: 07:14:09
(UTC+00:00)

Daily predictions for brighter satellites

Satellite Brightness Start Highest point End
(mag) Time Altitude Azimuth Time Altitude Azimuth Time Altitude Azimuth
Cosmos 783 Rocket 4.5 17:14:25 10° NNW 17:19:40 71° ENE 17:24:54 10° SSE
MOS 1-B 4.5 17:14:02 10° SSE 17:19:51 87° WSW 17:25:41 10° NNW
CORIOLIS 4.2 17:16:40 10° SSE 17:22:00 66° ENE 17:27:21 10° N
Cosmos 2263 Rocket 2.6 17:16:36 10° S 17:22:01 47° ESE 17:27:26 10° NE
Cosmos 1455 3.9 17:22:08 10° NNE 17:24:02 13° ENE 17:25:57 10° E
Cosmos 968 Rocket 3.5 17:19:32 10° SSW 17:24:39 90° ENE 17:29:49 10° NNE
Envisat 3.7 17:20:16 10° S 17:25:17 62° WSW 17:30:21 10° NNW
Cosmos 2058 Rocket 4.1 17:22:24 10° N 17:26:10 25° ENE 17:29:55 10° ESE
Cosmos 1354 Rocket 4.4 17:21:38 10° S 17:26:44 49° ESE 17:31:53 10° NNE
NOAA 11 4.2 17:22:01 10° SSE 17:27:27 66° ENE 17:32:56 10° N
NOAA 6 4.4 17:22:50 10° S 17:27:58 72° WSW 17:33:09 10° NNW
Cosmos 1300 2.8 17:24:58 10° N 17:28:43 52° ENE 17:32:27 10° SSE
NOSS 7 (H) 4.4 17:29:35 10° SSW 17:32:45 53° SE 17:35:34 10° NE
Landsat 5 3.3 17:30:10 10° NNE 17:34:10 67° ESE 17:38:00 10° S
Cosmos 1953 4.2 17:30:53 10° NNW 17:34:29 33° W 17:38:04 10° SSW
Cosmos 1486 Rocket 4.1 17:30:12 10° SSW 17:35:27 81° WNW 17:40:42 10° NNE
ADEOS Rocket 3.7 17:32:05 10° N 17:38:09 54° WNW 17:43:41 10° SW
NOSS 3-1 (C) 4.3 17:32:08 10° NW 17:38:36 43° NNE 17:46:12 10° E
Lacrosse 5 1.9 17:33:40 10° WNW 17:38:45 69° NNE 17:43:47 10° ESE
CREW DRAGON DEMO-1 DEB 2.7 17:36:06 10° W 17:39:01 82° S 17:41:52 10° E
ARGOS 4.3 17:36:00 10° ESE 17:39:55 21° NE 17:43:49 10° N
Cosmos 1943 3.6 17:35:18 10° NW 17:40:59 71° WSW 17:46:36 10° SSE
Cosmos 1726 Rocket 3.7 17:37:42 10° N 17:41:56 48° ENE 17:46:12 10° SSE
ERS-2 3.9 17:42:03 12° ENE 17:43:23 14° E 17:45:21 10° SE
Cosmos 1939 Rocket 3.0 17:42:28 10° SSE 17:46:29 53° ENE 17:50:29 10° N
Meteor 1-24 Rocket 3.7 17:43:38 10° S 17:48:49 54° E 17:53:59 10° NNE
COSMOS 2455 3.7 17:44:11 10° S 17:49:21 31° ESE 17:54:02 12° NE
Cosmos 1833 Rocket 4.1 17:47:53 10° NNW 17:51:51 19° NNE 17:54:41 14° ENE
Cosmos 1674 4.1 17:49:16 10° SW 17:52:54 40° WNW 17:56:34 10° N
Cosmos 2082 Rocket 3.9 17:50:02 10° NNW 17:53:24 16° NNE 17:55:56 12° NE
Cosmos 1315 Rocket 2.9 17:50:35 10° NNW 17:54:33 79° W 17:58:33 10° S
USA 229 DEB 4.3 17:48:55 10° NW 17:55:33 41° NNE 18:01:49 13° E
USA 229 4.3 17:49:01 10° NW 17:55:38 41° NNE 18:01:52 13° E
IRS-1C Rocket 4.3 17:52:26 10° SE 17:57:29 50° ENE 18:02:33 10° N
CZ-4 R/B 2.1 17:55:13 10° SE 17:58:52 32° ENE 18:02:29 10° N
Feng Yun 1-1 Rocket 4.2 17:54:46 10° SSE 18:00:09 67° ENE 18:05:42 10° NNW
NOSS 3-4 (A) 4.0 17:55:10 10° WSW 18:01:02 54° NNW 18:07:06 12° NE
COSMO-SKYMED 1 3.1 17:57:02 10° NNE 18:01:05 37° E 18:05:07 10° SSE
NOSS 3-4 (C) 4.0 17:55:19 10° WSW 18:01:12 54° NNW 18:07:15 12° NE
Cosmos 2279 Rocket 4.0 17:55:25 10° N 18:01:44 82° ENE 18:08:00 10° SSE
Cosmos 1503 Rocket 4.2 17:58:03 10° SSW 18:03:26 81° WNW 18:08:51 10° NNE
Cosmos 2227 4.2 18:00:34 10° SSW 18:06:14 89° ESE 18:11:58 10° NNE
Cosmos 2227 Rocket 3.9 18:04:50 10° W 18:09:32 26° NW 18:14:16 10° NNE
NOSS 3-1 (A) 4.3 18:04:39 10° NW 18:11:09 43° NNE 18:16:57 17° E
CZ-4B R/B 1.6 18:08:13 11° NNE 18:11:21 46° E 18:14:35 10° S
CZ-4 R/B 4.4 18:08:11 10° SSE 18:12:15 60° ENE 18:16:22 10° N
H-2A R/B 4.4 18:10:37 10° SSW 18:14:18 33° W 18:18:07 10° NNW
Cosmos 923 Rocket 4.3 18:09:26 10° NNW 18:14:37 46° ENE 18:19:43 10° SE
Okean-O 2.9 18:10:48 10° SE 18:15:00 44° ENE 18:19:13 10° N
CSL-04 DEB 4.4 18:10:53 10° NNE 18:15:07 67° ESE 18:19:13 10° S
CZ-2C R/B 3.1 18:11:14 10° SSE 18:16:32 70° ENE 18:22:09 10° N
Cosmos 1844 Rocket 3.5 18:11:42 10° SSE 18:16:35 30° ESE 18:19:24 20° ENE
Okean O Rocket 2.8 18:13:40 10° S 18:17:57 47° W 18:22:15 10° NNW
Cosmos 1626 3.4 18:14:57 10° SW 18:18:28 41° WNW 18:22:00 10° N
ATLAS 2AS CENTAUR R/B 3.4 18:10:51 10° WSW 18:18:43 61° NW 18:25:30 14° NE
H-2A R/B 2.2 18:14:16 10° SE 18:19:00 46° ENE 18:23:55 10° N
SeaSat 1 4.2 18:15:08 10° NNE 18:19:15 27° NW 18:23:21 10° W
Aureole 2 Rocket 3.4 18:17:23 10° SSE 18:19:29 23° ESE 18:19:29 23° ESE
Cosmos 158 Rocket 4.1 18:14:51 10° NNW 18:20:04 53° ENE 18:25:20 10° SE
Cosmos 1680 Rocket 3.9 18:17:00 10° NNW 18:21:59 41° NE 18:26:36 12° SE
SAR-Lupe-4 4.2 18:31:27 33° E 18:31:27 33° E 18:34:42 10° SSE
Meteor 2-10 Rocket 3.6 18:26:08 10° NNW 18:31:46 86° WSW 18:37:07 10° S
CZ-2D R/B 3.4 18:28:37 10° S 18:32:28 77° WSW 18:36:21 10° NNW
Cosmos 1818 4.2 18:28:11 10° S 18:33:02 35° ESE 18:34:52 27° E
H-2A R/B 3.0 18:29:18 10° N 18:33:38 50° WNW 18:37:53 10° SW
Cosmos 489 Rocket 4.4 18:27:21 10° NNW 18:33:45 76° ENE 18:40:06 10° SSE
Cosmos 2297 Rocket 4.3 18:30:31 10° WNW 18:34:25 19° NNW 18:38:20 10° NNE
YAOGAN 1 2.5 18:32:36 10° SSE 18:36:53 65° ENE 18:41:12 10° N
Cosmos 1892 Rocket 3.5 18:33:41 10° S 18:38:02 90° NW 18:42:24 10° N
CSL-04 Rocket 3.8 18:35:41 10° SE 18:40:54 51° ENE 18:46:13 10° N
Helios 1A Rocket 2.9 18:37:44 10° SSE 18:41:48 59° ENE 18:45:54 10° N
SAR-Lupe-1 4.4 18:42:35 42° ESE 18:42:35 42° ESE 18:45:47 10° S
Aureole 1 3.9 18:40:10 10° NNW 18:43:18 81° ENE 18:44:09 43° SE
USA 234 3.3 18:40:19 26° E 18:44:11 64° NNE 18:50:40 10° WNW
RESURS DK-1 3.9 18:40:58 10° WSW 18:44:42 31° NW 18:47:47 14° NNE
Iridium 4 Rocket 3.9 18:39:27 10° N 18:44:58 44° ENE 18:50:07 10° SSE
ATLAS 5 CENTAUR R/B 2.0 18:41:02 10° WSW 18:45:08 58° NW 18:47:37 26° NNE
MOS 1 Rocket 2.9 18:41:03 10° NNE 18:45:26 74° ESE 18:49:42 10° S
Meteor 2-1 Rocket 4.1 18:40:31 10° NNW 18:46:10 82° ENE 18:51:41 10° SSE
Cosmos 1092 Rocket 4.2 18:41:06 10° SSE 18:46:55 45° E 18:52:43 10° NNE
Cosmos 1812 Rocket 3.8 18:43:45 10° N 18:48:00 44° ENE 18:48:54 38° ESE
SKYMED 2 3.6 18:44:53 10° NNE 18:49:15 81° WNW 18:53:36 10° SSW
Cosmos 2344 4.2 18:42:15 10° NW 18:50:52 66° NE 18:59:35 20° ESE
SJ 16-02 1.4 18:51:05 10° S 18:55:22 54° ESE 18:55:59 49° ENE
Aureole 3 2.9 18:52:09 10° NNW 18:55:54 82° W 18:59:03 10° S
SJ-11-01 4.1 18:51:21 10° SSE 18:56:03 82° ENE 19:00:46 10° NNW
Cosmos 2112 Rocket 3.9 18:54:20 10° NNW 18:59:36 65° ENE 19:02:18 28° SE
Cosmos 1455 2.3 18:56:20 10° NNW 19:00:09 73° W 19:03:57 10° S
Cosmos 1777 Rocket 4.3 18:56:56 10° SW 19:02:11 69° WNW 19:06:17 17° NNE
CZ-4C R/B 3.4 18:57:48 10° W 19:02:58 38° NNW 19:06:29 22° NNE
Nadezhda 4 Rocket 3.9 18:57:57 10° S 19:04:12 88° E 19:10:26 10° N
Cosmos 2058 Rocket 4.3 19:00:05 10° NNW 19:04:22 44° W 19:08:38 10° SSW
Cosmos 2263 Rocket 3.3 19:00:44 10° WSW 19:06:04 40° NW 19:10:38 14° NNE
X-37B 3.2 19:04:40 10° SSW 19:05:31 13° S 19:05:31 13° S
CREW DRAGON DEMO-1 DEB 4.5 19:11:19 10° W 19:13:20 31° WSW 19:13:20 31° WSW
COSMOS 2406 3.4 19:08:35 10° NNW 19:14:15 51° NE 19:14:49 49° ENE
ERS-2 2.5 19:16:37 49° NNW 19:17:17 60° WNW 19:20:52 10° SSW
ISS -1.7 19:16:29 10° SW 19:17:58 21° SSW 19:17:58 21° SSW
ARGOS 3.1 19:14:13 10° SSE 19:19:34 83° WSW 19:25:00 10° NNW
Okean 1-7 Rocket 4.3 19:15:29 10° SSW 19:19:57 55° WNW 19:24:28 10° N
PSLV R/B 4.1 19:19:53 37° N 19:21:27 71° WNW 19:25:39 10° SSW
Lacrosse 5 2.9 19:16:50 10° WNW 19:21:35 42° SW 19:24:15 23° SSE
CZ-2C R/B 3.2 19:27:19 43° SE 19:27:19 43° SE 19:31:24 10° S
CSL-04 Debris 4.4 19:24:32 10° S 19:29:54 69° WSW 19:35:18 10° NNW
NOSS 3-1 (C) 4.0 19:23:00 10° NW 19:30:17 88° SW 19:34:39 32° SE
Cosmos 1626 Rocket 3.6 19:26:23 10° SSW 19:30:46 75° WNW 19:31:14 67° NNW
CZ-4 R/B 3.3 19:30:14 10° SSW 19:33:53 31° W 19:37:31 10° NNW
COSMOS 2455 3.1 19:28:55 10° SW 19:34:55 67° NW 19:37:13 39° NNE
Cosmos 1553 Rocket 3.9 19:28:50 10° N 19:35:15 65° ENE 19:36:14 58° ESE
Cosmos 1833 Rocket 2.8 19:31:23 10° NNW 19:36:25 58° NNE 19:36:25 58° NNE
COSMO-SKYMED 1 4.3 19:33:22 10° N 19:37:11 31° WNW 19:41:00 10° SW
Cosmos 1844 3.6 19:32:34 10° SSW 19:38:15 88° ESE 19:39:07 66° NE
Cosmos 2082 Rocket 3.1 19:33:42 10° NNW 19:37:47 36° NNE 19:37:47 36° NNE
Cosmos 2026 Rocket 3.8 19:35:08 10° S 19:41:14 82° E 19:47:29 10° NNE
USA 281 3.8 19:43:33 40° NNE 19:43:33 40° NNE 19:48:49 10° NNW
SL-08 RB Rocket 3.9 19:43:21 68° W 19:43:21 68° W 19:47:40 10° NNW
CZ-4B R/B 4.3 19:41:19 11° NNW 19:43:14 17° WNW 19:45:26 10° WSW
USA 229 DEB 3.8 19:40:04 10° NW 19:47:19 90° NE 19:49:18 54° SE
USA 229 3.8 19:40:10 10° NW 19:47:25 89° NE 19:49:21 55° SE
Ariane Rocket 4.3 19:50:14 29° N 19:50:14 29° N 19:52:45 10° N
USA 267 4.0 19:51:34 37° SSE 19:51:34 37° SSE 19:56:20 10° SSW
IRS-1A Rocket 4.5 19:52:29 63° NNE 19:52:29 63° NNE 19:57:32 10° NNW
H-2A R/B 3.8 19:54:15 10° SSW 19:58:39 30° W 20:03:09 10° NNW
Cosmos 1844 Rocket 3.1 19:54:35 10° SW 20:00:11 58° NW 20:01:07 51° NNW
NOSS 3-1 (A) 3.9 19:55:34 10° NW 20:02:52 87° SW 20:04:26 63° SE
ATLAS 2AS CENTAUR R/B 3.9 20:04:00 10° WNW 20:11:10 36° N 20:12:56 32° NNE
Cosmos 2098 Rocket 4.4 20:06:52 10° SSW 20:14:04 78° W 20:21:32 10° N
Cosmos 1818 4.2 20:11:02 10° WSW 20:15:33 52° W 20:15:33 52° W
USA 234 3.3 20:27:40 72° WSW 20:27:40 72° WSW 20:33:46 10° WNW
ATLAS 5 CENTAUR R/B 3.9 20:26:59 10° WNW 20:29:10 21° NW 20:29:10 21° NW
SJ 16-02 3.7 20:30:39 10° WSW 20:33:02 21° WNW 20:33:02 21° WNW
CZ-4C R/B 4.0 20:47:45 10° NW 20:51:40 28° NNW 20:51:40 28° NNW
Cosmos 2082 Rocket 4.4 21:17:52 10° NW 21:19:40 20° NW 21:19:40 20° NW
